Location: Rounton
(54.4000°N, 1.3500°W)
Time: 16:20:58
(UTC+01:00)

Transit 2A Rocket - Visible Passes

Search period start: 22 June 2024 00:00
Search period end: 02 July 2024 00:00
Orbit: 583 x 910 km, 66.7° (Epoch: 22 June)

Date Brightness Start Highest point End Pass type
(mag) Time Alt. Az. Time Alt. Az. Time Alt. Az.
22 Jun 7.4 00:34:05 10° WNW 00:38:54 29° NNW 00:44:02 10° NE visible
22 Jun 7.8 02:18:23 10° NW 02:23:10 25° N 02:28:07 10° ENE visible
22 Jun 7.1 23:49:25 10° W 23:54:25 34° NNW 23:59:47 10° NE visible
23 Jun 7.8 01:33:54 10° NW 01:38:34 25° N 01:43:26 10° NE visible
23 Jun 7.3 03:17:21 10° NW 03:22:43 34° NNE 03:28:15 10° E visible
23 Jun 6.7 23:04:49 10° WSW 23:10:00 43° NNW 23:15:35 10° NE visible
24 Jun 7.8 00:49:17 10° WNW 00:53:58 25° N 00:58:53 10° NE visible
24 Jun 7.6 02:33:08 10° NW 02:38:13 29° NNE 02:43:29 10° ENE visible
25 Jun 7.6 00:04:36 10° WNW 00:09:24 28° NNW 00:14:27 10° NE visible
25 Jun 7.8 01:48:47 10° NW 01:53:40 26° N 01:58:43 10° ENE visible
25 Jun 6.6 03:31:46 10° NW 03:37:32 47° NE 03:43:26 10° ESE visible
25 Jun 7.4 23:19:55 10° W 23:24:52 32° NNW 23:30:08 10° NE visible
26 Jun 7.8 01:04:21 10° NW 01:09:04 25° N 01:14:00 10° ENE visible
26 Jun 7.1 02:47:38 10° NW 02:53:10 38° NNE 02:58:49 10° E visible
26 Jun 7.0 22:35:16 10° W 22:40:24 38° NNW 22:45:55 10° NE visible
27 Jun 7.8 00:19:46 10° WNW 00:24:28 25° N 00:29:22 10° NE visible
27 Jun 7.4 02:03:27 10° NW 02:08:42 31° NNE 02:14:05 10° E visible
27 Jun 7.7 23:35:07 10° WNW 23:39:53 26° N 23:44:53 10° NE visible
28 Jun 7.6 01:19:09 10° NW 01:24:09 28° NNE 01:29:18 10° ENE visible
28 Jun 6.3 03:02:03 10° NW 03:07:55 54° NE 03:13:54 10° ESE visible
28 Jun 7.5 22:50:24 10° W 22:55:19 30° NNW 23:00:31 10° NE visible
29 Jun 7.7 00:34:45 10° NW 00:39:35 26° N 00:44:34 10° ENE visible
29 Jun 6.8 02:17:55 10° NW 02:23:35 42° NNE 02:29:21 10° ESE visible
29 Jun 7.8 23:50:14 10° NW 23:54:58 25° N 23:59:52 10° NE visible
30 Jun 7.2 01:33:45 10° NW 01:39:08 34° NNE 01:44:40 10° E visible
30 Jun 5.5 03:16:24 10° NW 03:22:29 83° NE 03:28:35 10° SE visible
30 Jun 7.7 23:05:36 10° WNW 23:10:21 26° N 23:15:19 10° NE visible
01 Jul 7.4 00:49:29 10° NW 00:54:38 29° NNE 00:59:54 10° ENE visible
01 Jul 6.0 02:32:17 10° NW 02:38:16 62° NE 02:44:18 10° ESE visible
